Etusivu
METAR-TAF:

METAR-TAF

Lentoasemat :

Gulf Shores, Alabama, Yhdysvallat

Leveyspiiri: 30-17-23N, Pituuspiiri: 087-40-18W, korkeus merenpinnasta: 5 m

Tämänhetkinen sää

Tämä raportti tehtiin 23 minuuttia sitten, kello 10.55 UTC
tyyntä
Lämpötila 4°C
Kosteus 100%
Ilmanpaine 1013 hPa
Näkyvyys: 11.3 km
selkeää

METAR: KJKA 181055Z AUTO 00000KT 7SM CLR 04/04 A2992 RMK AO2 T00420041

Aika: 05:18 (11:18 UTC)


TAF: puuttuu

Säähavainnot ja -ennusteet yli 4000 lentoasemalta (METAR- ja TAF-raportit).

Käytössä olevat sääasemat on merkitty karttaan keltaisilla ja punaisilla pisteillä.

Aseta hiiri pisteen päälle nähdäksesi sääaseman nimen.

Klikkaa sitten nähdäksesi säähavainnot ja -ennusteet.

Kartan vaihtaminen: klikkaa mustalla rastilla varustettuja vihreitä pisteitä, niin voit zoomata sisään; viivalla varustettua vihreää pistettä, niin voit zoomata ulos tai vihreitä nuolia, niin pääset viereisille kartoille.


METAR-TAF: